Regional Weather Roundup
Issued by NWS Green Bay, WI

Home | Current Version | Previous Version | Text Only | Print | Product List | Glossary On
Versions: 1 2 3 4 5 6 7 8 9 10 11 12 13 14 15 16 17 18 19 20 21 22 23 24 25 26 27 28 29 30 31 32 33 34 35 36 37 38 39 40 41 42 43 44 45 46 47 48 49 50
407
ASUS43 KGRB 280011
RWRGRB

NORTH-CENTRAL AND NORTHEAST WISCONSIN REGIONAL WEATHER ROUNDUP
NATIONAL WEATHER SERVICE GREEN BAY WI
700 PM CDT TUE SEP 27 2016

WIZ005-009-010>012-018-019-280100-
NORTH CENTRAL WISCONSIN

CITY           SKY/WX    TMP DP  RH WIND       PRES   REMARKS
IRONWOOD       RAIN      49  48  97 NW6       29.74R FOG
MANITOWISH WTR CLOUDY    46  46 100 NW8       29.72R FOG
ARBOR VITAE    CLOUDY    49  48  95 NW7       29.72R FOG
EAGLE RIVER    CLOUDY    47  47  97 NW7       29.70R
LAND O LAKES   DRIZZLE   47  46  96 NW8       29.71R
RHINELANDER    CLOUDY    48  48 100 VRB3      29.72R FOG
PHILLIPS       CLOUDY    46  46  99 CALM      29.74R
ANTIGO         CLOUDY    47  46  97 CALM      29.71S
TOMAHAWK       RAIN      46  45  93 W3        29.73R
MERRILL        CLOUDY    48  47  97 NW7       29.73R
$$

WIZ013-073-280100-
NORTHEAST WISCONSIN

CITY           SKY/WX    TMP DP  RH WIND       PRES   REMARKS
IRON MOUNTAIN  CLOUDY    50  45  83 W5        29.66R
MARINETTE      LGT RAIN  52  50  93 CALM      29.69R
OCONTO         CLOUDY    51  49  93 W7        29.70R
$$

WIZ017-030-035>037-045-280100-
CENTRAL WISCONSIN

CITY           SKY/WX    TMP DP  RH WIND       PRES   REMARKS
MEDFORD        CLOUDY    46  46 100 W8        29.74S
WAUSAU         CLOUDY    49  47  93 W8        29.72R
MOSINEE        CLOUDY    48  48 100 W7        29.74R
MARSHFIELD     LGT RAIN  49  45  86 NW9       29.75R
WISC RAPIDS    LGT RAIN  49  48  97 NW7       29.76S
STEVENS POINT  RAIN      47  47  99 W6        29.74S
WAUPACA        RAIN      52  50  94 W8        29.74S
SHAWANO        CLOUDY    52  49  88 W7        29.71S
CLINTONVILLE   NOT AVBL
WAUTOMA        LGT RAIN  50  48  93 W10       29.76R
$$

WIZ038-039-048-051-280100-
FOX VALLEY

CITY           SKY/WX    TMP DP  RH WIND       PRES   REMARKS
NWS GREEN BAY  LGT RAIN  51  51 100 W7        29.72R
APPLETON       LGT RAIN  50  50 100 W10       29.72S
OSHKOSH        LGT RAIN  51  47  86 W7        29.74S
FOND DU LAC    LGT RAIN  51  47  86 W8        29.76R
$$

WIZ022-050-052-280100-
EAST CENTRAL WISCONSIN

CITY           SKY/WX    TMP DP  RH WIND       PRES   REMARKS
EPHRAIM        MOCLDY    51  49  96 W6        29.67R
WASHINGTON ISL CLOUDY    52  47  85 W5        29.67R
STURGEON BAY   MOCLDY    52  49  89 W9        29.70R
MANITOWOC      LGT RAIN  52  48  86 MISG      29.74R
SHEBOYGAN      LGT RAIN  52  46  80 W7        29.75R
$$

LMZ563-521-522-541>543-280100-
LAKESHORE

STATION/POSITION TIME  TEMP    WIND        PRES    VSBY  WAVE
                       AIR SEA DIR/SP/G                  HT/PER
                 (UTC) (F)     (DEG/KT/KT) (MB)    (MI)  (FT/S)
SHEBOYGAN LKSHOR 0000   53     280/  9/ 11 1007.2R
KEWAUNEE LKSHORE 2300   53     270/  8/ 12 1005.4R
NORTHPORT PIER   2300   53     260/  4/  7 1004.4R
N MID LAKE BUOY  2350   56 66  250/ 16/ 19 1003.7R         4/ 6
CHAMBERS ISLAND  2300   53     250/  5/ 12 1004.4R
MENOMINEE LKSHOR 2300   53     260/  5/ 10 1004.2R
$$




USA.gov is the U.S. government's official web portal to all federal, state and local government web resources and services.